FW4370 Weather Reports


Display with metric or nautical units.
time (UTC)temp
F
wind
direction
speed
MPH
gust
MPH
rain 1hr
in
rain 24hr
in
rain mn
in
humidity
%
barometer
mb
20260509160008 79 34 3.0 7.0 0.00 0.00 0.00 10 1005.6
20260509154503 80 104 0.0 6.0 0.00 0.00 0.00 11 1005.6
20260509153058 78 233 0.0 1.0 0.00 0.00 0.00 12 1005.7
20260509151554 77 326 0.0 2.0 0.00 0.00 0.00 12 1005.8
20260509150051 76 266 0.0 2.0 0.00 0.00 0.00 13 1006.0
20260509144602 77 152 0.0 1.0 0.00 0.00 0.00 13 1006.0
20260509143044 74 62 0.0 3.0 0.00 0.00 0.00 14 1005.8
20260509141541 75 56 0.0 1.0 0.00 0.00 0.00 15 1005.9
20260509140054 74 56 0.0 0.0 0.00 0.00 0.00 15 1005.9
20260509134530 73 279 0.0 0.0 0.00 0.00 0.00 16 1005.9
20260509133026 69 279 0.0 0.0 0.00 0.00 0.00 17 1005.9
20260509131530 64 279 0.0 0.0 0.00 0.00 0.00 16 1005.9
20260509130024 61 279 0.0 0.0 0.00 0.00 0.00 16 1005.6
20260509124518 59 279 0.0 0.0 0.00 0.00 0.00 15 1005.5
20260509123006 60 279 0.0 1.0 0.00 0.00 0.00 15 1005.4
20260509121616 60 279 0.0 1.0 0.00 0.00 0.00 15 1005.3
20260509120054 63 279 0.0 1.0 0.00 0.00 0.00 15 1005.2
20260509114550 63 280 0.0 2.0 0.00 0.00 0.00 14 1005.1
20260509113055 64 287 0.0 1.0 0.00 0.00 0.00 14 1005.2
20260509111544 64 266 0.0 1.0 0.00 0.00 0.00 14 1005.2
20260509110040 65 249 0.0 3.0 0.00 0.00 0.00 14 1005.2
20260509104536 66 268 1.0 5.0 0.00 0.00 0.00 13 1005.2
20260509103133 65 243 1.0 4.0 0.00 0.00 0.00 13 1005.2
20260509101532 65 257 2.0 5.0 0.00 0.00 0.00 13 1005.3
20260509100032 65 234 2.0 4.0 0.00 0.00 0.00 13 1005.4
20260509094527 66 275 1.0 4.0 0.00 0.00 0.00 13 1005.4
20260509093125 66 269 1.0 5.0 0.00 0.00 0.00 13 1005.4
20260509091520 66 257 1.0 7.0 0.00 0.00 0.00 13 1005.3
20260509090017 66 269 1.0 5.0 0.00 0.00 0.00 12 1005.2
20260509084516 67 274 1.0 6.0 0.00 0.00 0.00 12 1005.4
20260509083011 67 274 2.0 6.0 0.00 0.00 0.00 12 1005.6
20260509081508 67 255 1.0 7.0 0.00 0.00 0.00 12 1005.6
20260509080005 66 283 1.0 4.0 0.00 0.00 0.00 12 1005.6
20260509074503 67 275 1.0 5.0 0.00 0.00 0.00 12 1005.7
20260509073100 67 299 1.0 4.0 0.00 0.00 0.00 12 1005.8
20260509071557 67 264 1.0 4.0 0.00 0.00 0.00 12 1005.7
20260509070054 67 268 1.0 5.0 0.00 0.00 0.00 12 1005.8
20260509064553 67 273 1.0 5.0 0.00 0.00 0.00 12 1005.8
20260509063102 68 271 1.0 4.0 0.00 0.00 0.00 12 1005.9
20260509061549 68 264 2.0 5.0 0.00 0.00 0.00 12 1005.9
20260509060055 68 263 1.0 5.0 0.00 0.00 0.00 12 1005.8
20260509054548 68 243 1.0 4.0 0.00 0.00 0.00 12 1005.9
20260509053110 68 249 1.0 5.0 0.00 0.00 0.00 12 1006.0
20260509051541 68 253 2.0 5.0 0.00 0.00 0.00 12 1006.0
20260509050040 69 243 2.0 4.0 0.00 0.00 0.00 12 1006.0
20260509044538 69 239 2.0 7.0 0.00 0.00 0.00 12 1005.8
20260509043046 69 240 2.0 7.0 0.00 0.00 0.00 12 1005.7
20260509041542 69 254 1.0 6.0 0.00 0.00 0.00 11 1005.6
20260509040031 70 271 2.0 7.0 0.00 0.00 0.00 11 1005.3
20260509034528 70 278 3.0 8.0 0.00 0.00 0.00 11 1005.1
20260509033026 70 242 1.0 5.0 0.00 0.00 0.00 10 1005.0
20260509031522 71 247 1.0 7.0 0.00 0.00 0.00 10 1004.7
20260509030023 72 283 2.0 6.0 0.00 0.00 0.00 10 1004.6
20260509024520 73 254 2.0 11.0 0.00 0.00 0.00 9 1004.4
20260509023019 74 211 2.0 9.0 0.00 0.00 0.00 9 1004.2
20260509021517 76 245 4.0 9.0 0.00 0.00 0.00 9 1004.0
20260509020014 77 231 6.0 12.0 0.00 0.00 0.00 8 1003.8
20260509014514 79 273 5.0 16.0 0.00 0.00 0.00 8 1003.6
20260509013010 80 230 7.0 14.0 0.00 0.00 0.00 8 1003.5
20260509011507 81 238 7.0 16.0 0.00 0.00 0.00 8 1003.5
20260509010015 82 255 9.0 15.0 0.00 0.00 0.00 8 1003.6
20260509004505 82 285 7.0 20.0 0.00 0.00 0.00 8 1003.6
20260509003002 81 250 6.0 16.0 0.00 0.00 0.00 8 1003.5
20260509001559 82 288 4.0 15.0 0.00 0.00 0.00 7 1003.6
20260509000059 81 210 6.0 14.0 0.00 0.00 0.00 7 1003.6
20260508234556 83 243 7.0 16.0 0.00 0.00 0.00 7 1003.6
20260508233101 84 295 5.0 21.0 0.00 0.00 0.00 7 1003.6
20260508231550 84 232 9.0 18.0 0.00 0.00 0.00 7 1003.7
20260508230057 85 227 8.0 16.0 0.00 0.00 0.00 7 1003.7
20260508224546 85 242 8.0 15.0 0.00 0.00 0.00 7 1003.9
20260508223042 85 267 6.0 18.0 0.00 0.00 0.00 7 1004.1
20260508221545 85 229 7.0 16.0 0.00 0.00 0.00 7 1004.2
20260508220036 86 218 7.0 14.0 0.00 0.00 0.00 6 1004.5
20260508214531 85 273 7.0 15.0 0.00 0.00 0.00 6 1004.6
20260508213029 86 284 7.0 19.0 0.00 0.00 0.00 6 1004.9
20260508211525 85 251 8.0 16.0 0.00 0.00 0.00 6 1005.1
20260508210021 86 250 8.0 18.0 0.00 0.00 0.00 6 1005.5
20260508204517 85 250 4.0 13.0 0.00 0.00 0.00 6 1005.9
20260508203014 85 286 4.0 13.0 0.00 0.00 0.00 6 1006.0
20260508201511 85 271 5.0 15.0 0.00 0.00 0.00 6 1006.1
20260508200007 85 275 4.0 14.0 0.00 0.00 0.00 7 1006.1
20260508194504 85 326 3.0 16.0 0.00 0.00 0.00 7 1006.1
20260508193115 84 313 3.0 12.0 0.00 0.00 0.00 7 1006.2
20260508191558 84 107 1.0 5.0 0.00 0.00 0.00 7 1006.5
20260508190051 83 214 1.0 11.0 0.00 0.00 0.00 7 1006.7
20260508184545 83 288 1.0 10.0 0.00 0.00 0.00 7 1006.6
20260508183039 84 244 2.0 12.0 0.00 0.00 0.00 8 1006.9
20260508181536 83 288 4.0 8.0 0.00 0.00 0.00 8 1007.2
20260508180033 82 271 2.0 10.0 0.00 0.00 0.00 8 1007.3
20260508174537 82 317 0.0 6.0 0.00 0.00 0.00 8 1007.5
20260508173025 81 323 2.0 5.0 0.00 0.00 0.00 9 1007.7
20260508171522 79 42 1.0 7.0 0.00 0.00 0.00 9 1007.8
20260508170020 79 304 2.0 7.0 0.00 0.00 0.00 10 1008.0
20260508164518 77 267 0.0 5.0 0.00 0.00 0.00 10 1008.1
20260508163007 76 276 1.0 5.0 0.00 0.00 0.00 11 1008.2
20260508161510 74 110 0.0 4.0 0.00 0.00 0.00 11 1008.4